KINEIS-5D

Last updated on Sun Dec 14 2025 00:02:44 GMT+0000 (Coordinated Universal Time)

1 62082U 24219B 25346.87926235 .00001502 00000+0 24520-3 0 9991 2 62082 97.9833 144.9246 0001332 195.7587 164.3579 14.72332342 56344
UTC large
Height (km)
Speed (km/s)
/
Latitude / Longitude
Inclination (degrees)
Orbital Period (minutes)
Azimuth
Elevation
Range (km)
Doppler Factor

Next 0 passes for location: London (51.5072 / 0.1276)

Sorry there are no passes over London.